Погода в Харашибири

Россия / Республика Бурятия     51°05′55″N   107°59′21″E
темп.,
°C
ветер,
м/с
пор.,
м/с
влажн.,
%
обл.,
%
осадки,
мм/ч
давл.,
гПа
погр.,
м
15 апреля, чт
чт1523:00−5зсз1175100 0.0 101828
02:00−7зюз118696 0.0 101823
05:00−7з248919 0.0 101797
08:00−3зсз36696 0.0 1015712
11:00+1сз3644100 0.0 10131358
14:00+3зсз4532100 0.0 10122454
17:00+2сз5744100 0.1 10131587
20:00−2сз257797 0.4 101791
16 апреля, пт
пт1623:00−3сз411795 0.5 1020717
02:00−6зсз399237 0.5 1024412
05:00−7зюз239733 0.0 102663
08:00−4зсз487280 0.0 1026653
11:00+1з464051 0.0 10241222
14:00+5зсз56265 0.0 10201468
17:00+6зсз462962 0.0 10181269
20:00+1ююз22465 0.0 101912
17 апреля, сб
сб1723:000ю33485 0.0 101839
02:00−1ю34535 0.0 101751
05:00−2ююв34595 0.0 101551
08:00+3ю244648 0.0 1013190
11:00+9зюз45345 0.0 10101104
14:00+12з34285 0.0 10071519
17:00+13зсз34263 0.0 10061910
20:00+6зсз11413 0.0 100811
18 апреля, вс
вс1823:00+4ююв014616 0.0 100810
02:00+3зсз1154100 0.0 100911
05:000ссз1183100 0.0 101025
08:00+3с226959 0.0 1010261
11:00+9сз224598 0.0 1007859
14:00+11сз3438100 0.0 10051171
17:00+11ссз453853 0.0 10061296
20:00+5ссз3655100 0.0 1011161
19 апреля, пн
пн1923:00+2сз2464100 0.0 1016107
02:00+1сз127298 0.0 101839
05:00−1сз117852 0.0 102016
08:00+2ссв125293 0.0 1021513
11:00+8юв23335 0.0 10171101
14:00+12ююз24295 0.0 10131644
17:00+13юз2428100 0.0 10111695
20:00+7ююв224657 0.0 101315